Weather History for KACJ - June, 2014

Change the Weather History Date:

Sunday, June 29, 2014

  Actual Average (KABY) Record (KABY)
Temperature  
Mean Temperature 81 °F 82 °F  
Max Temperature 93 °F 92 °F 104 °F (1936)
Min Temperature 69 °F 72 °F 58 °F (1968)
Degree Days  
Heating Degree Days 0 0  
Month to date heating degree days 0  
Since 1 June heating degree days 0  
Since 1 July heating degree days 1838  
Cooling Degree Days 16 17  
Month to date cooling degree days 448  
Year to date cooling degree days 888  
Since 1 June cooling degree days 448  
Growing Degree Days 31 (Base 50)    
Moisture  
Dew Point 68 °F    
Average Humidity 68    
Maximum Humidity 94    
Minimum Humidity 38    
Precipitation  
Precipitation 0.00 in 0.16 in 0.93 in (2001)
Month to date precipitation 4.79  
Year to date precipitation 25.15  
Sea Level Pressure  
Sea Level Pressure 30.17 in    
Wind  
Wind Speed 2 mph (NE)    
Max Wind Speed 9 mph    
Max Gust Speed 21 mph    
Visibility 10 miles    
Events Rain , Thunderstorm    
T = Trace of Precipitation, MM = Missing Value Source: NWS Daily Summary

Daily Weather History Graph

Daily Weather History Graph

Search for Another Location

Airport or City:

Trip Planner

Search our weather history database for the weather conditions in past years. The results will help you decide how hot, cold, wet, or windy it might be!

Date:

Astronomy

Jun. 29, 2014 Rise Set
Actual Time 6:33 AM EDT 8:47 PM EDT
Civil Twilight 6:05 AM EDT 9:15 PM EDT
Nautical Twilight 5:30 AM EDT 9:49 PM EDT
Astronomical Twilight 4:53 AM EDT 10:27 PM EDT
Moon 8:41 AM EDT (6/29) 10:17 PM EDT (6/29)
Length of Visible Light 15h 10m
Length of Day
14h 13m
Waxing Crescent, 5% of the Moon is Illuminated
Jun 29
Waxing Crescent
Jul 5
First Quarter
Jul 12
Full
Jul 18
Last Quarter
Jul 26
New

Hourly Weather History & Observations

Time (EDT) Temp. Heat Index Dew Point Humidity Pressure Visibility Wind Dir Wind Speed Gust Speed Precip Events Conditions
12:15 AM 77.0 °F - 68.0 °F 74% 30.22 in 10.0 mi Calm Calm - N/A   Clear
12:35 AM 77.0 °F - 68.0 °F 74% 30.21 in 10.0 mi North 4.6 mph - N/A   Clear
12:55 AM 78.8 °F - 66.2 °F 65% 30.21 in 10.0 mi North 3.5 mph - N/A   Clear
1:15 AM 77.0 °F - 66.2 °F 69% 30.21 in 10.0 mi North 3.5 mph - N/A   Clear
1:35 AM 77.0 °F - 68.0 °F 74% 30.20 in 10.0 mi Calm Calm - N/A   Clear
1:55 AM 77.0 °F - 68.0 °F 74% 30.19 in 10.0 mi Calm Calm - N/A   Clear
2:15 AM 73.4 °F - 68.0 °F 83% 30.19 in 10.0 mi Calm Calm - N/A   Clear
2:35 AM 73.4 °F - 68.0 °F 83% 30.18 in 10.0 mi Calm Calm - N/A   Clear
2:55 AM 75.2 °F - 68.0 °F 78% 30.18 in 10.0 mi Calm Calm - N/A   Clear
3:15 AM 73.4 °F - 68.0 °F 83% 30.17 in 10.0 mi Calm Calm - N/A   Clear
3:35 AM 73.4 °F - 68.0 °F 83% 30.16 in 10.0 mi Calm Calm - N/A   Clear
3:55 AM 71.6 °F - 68.0 °F 88% 30.16 in 10.0 mi Calm Calm - N/A   Clear
4:15 AM 71.6 °F - 68.0 °F 88% 30.15 in 10.0 mi Calm Calm - N/A   Clear
4:35 AM 71.6 °F - 68.0 °F 88% 30.16 in 10.0 mi Calm Calm - N/A   Clear
4:55 AM 71.6 °F - 68.0 °F 88% 30.16 in 10.0 mi Calm Calm - N/A   Clear
5:15 AM 71.6 °F - 68.0 °F 88% 30.16 in 10.0 mi Calm Calm - N/A   Clear
5:35 AM 69.8 °F - 68.0 °F 94% 30.16 in 10.0 mi NNE 3.5 mph - N/A   Clear
5:55 AM 69.8 °F - 68.0 °F 94% 30.17 in 10.0 mi Calm Calm - N/A   Clear
6:15 AM 69.8 °F - 68.0 °F 94% 30.17 in 10.0 mi Calm Calm - N/A   Clear
6:35 AM 69.8 °F - 68.0 °F 94% 30.19 in 10.0 mi Calm Calm - N/A   Clear
6:55 AM 69.8 °F - 68.0 °F 94% 30.19 in 10.0 mi Calm Calm - N/A   Clear
7:15 AM 71.6 °F - 68.0 °F 88% 30.19 in 10.0 mi Calm Calm - N/A   Clear
7:35 AM 71.6 °F - 69.8 °F 94% 30.20 in 10.0 mi Calm Calm - N/A   Clear
7:55 AM 73.4 °F - 69.8 °F 88% 30.20 in 10.0 mi Calm Calm - N/A   Clear
8:15 AM 77.0 °F - 69.8 °F 78% 30.21 in 10.0 mi NE 3.5 mph - N/A   Clear
8:35 AM 78.8 °F - 69.8 °F 74% 30.22 in 10.0 mi Calm Calm - N/A   Clear
8:55 AM 80.6 °F 83.9 °F 69.8 °F 70% 30.23 in 10.0 mi Calm Calm - N/A   Scattered Clouds
9:15 AM 80.6 °F 83.2 °F 68.0 °F 65% 30.23 in 10.0 mi North 3.5 mph - N/A   Unknown
9:35 AM 82.4 °F 86.3 °F 69.8 °F 66% 30.23 in 10.0 mi NE 3.5 mph - N/A   Unknown
9:55 AM 82.4 °F 86.3 °F 69.8 °F 66% 30.23 in 10.0 mi East 4.6 mph - N/A   Unknown
10:15 AM 84.2 °F 87.3 °F 68.0 °F 58% 30.23 in 10.0 mi ENE 5.8 mph - N/A   Unknown
10:35 AM 86.0 °F 89.4 °F 68.0 °F 55% 30.23 in 10.0 mi NNE 4.6 mph - N/A   Unknown
10:55 AM 86.0 °F 89.4 °F 68.0 °F 55% 30.23 in 10.0 mi NNE 5.8 mph - N/A   Unknown
11:15 AM 87.8 °F 91.4 °F 68.0 °F 52% 30.23 in 10.0 mi Calm Calm - N/A   Unknown
11:35 AM 87.8 °F 91.4 °F 68.0 °F 52% 30.22 in 10.0 mi NE 9.2 mph - N/A   Unknown
11:55 AM 87.8 °F 89.4 °F 64.4 °F 46% 30.22 in 10.0 mi North 5.8 mph - N/A   Unknown
12:15 PM 89.6 °F 91.1 °F 64.4 °F 43% 30.22 in 10.0 mi North 5.8 mph - N/A   Unknown
12:35 PM 89.6 °F 91.1 °F 64.4 °F 43% 30.21 in 10.0 mi North 3.5 mph - N/A   Unknown
12:55 PM 91.4 °F 93.2 °F 64.4 °F 41% 30.20 in 10.0 mi SE 4.6 mph - N/A   Unknown
1:15 PM 89.6 °F 91.1 °F 64.4 °F 43% 30.20 in 10.0 mi NE 6.9 mph - N/A   Unknown
1:35 PM 89.6 °F 91.1 °F 64.4 °F 43% 30.19 in 10.0 mi NNW 4.6 mph - N/A   Unknown
1:55 PM 91.4 °F 93.2 °F 64.4 °F 41% 30.18 in 10.0 mi NNW 6.9 mph - N/A   Unknown
2:15 PM 91.4 °F 93.2 °F 64.4 °F 41% 30.17 in 10.0 mi East 5.8 mph - N/A   Unknown
2:35 PM 93.2 °F 94.9 °F 64.4 °F 38% 30.16 in 10.0 mi East 5.8 mph - N/A   Unknown
2:55 PM 91.4 °F 92.1 °F 62.6 °F 38% 30.16 in 10.0 mi Calm Calm - N/A   Unknown
3:15 PM 93.2 °F 94.9 °F 64.4 °F 38% 30.15 in 10.0 mi NNE 4.6 mph - N/A   Unknown
3:35 PM 93.2 °F 94.9 °F 64.4 °F 38% 30.14 in 10.0 mi NE 5.8 mph - N/A   Unknown
3:55 PM 91.4 °F 93.2 °F 64.4 °F 41% 30.13 in 10.0 mi ENE 6.9 mph - N/A   Unknown
4:15 PM 91.4 °F 93.2 °F 64.4 °F 41% 30.13 in 10.0 mi ESE 6.9 mph - N/A   Unknown
4:35 PM 89.6 °F 92.2 °F 66.2 °F 46% 30.12 in 10.0 mi SE 6.9 mph - N/A   Unknown
4:55 PM 89.6 °F 92.2 °F 66.2 °F 46% 30.12 in 10.0 mi SE 5.8 mph - N/A   Unknown
5:15 PM 89.6 °F 93.4 °F 68.0 °F 49% 30.12 in 10.0 mi South 5.8 mph - N/A   Unknown
5:35 PM 84.2 °F 88.4 °F 69.8 °F 62% 30.13 in 0.8 mi NNE 8.1 mph 20.7 mph N/A Rain Heavy Rain
5:55 PM 80.6 °F 85.4 °F 73.4 °F 79% 30.11 in 10.0 mi SSW 8.1 mph - N/A   Mostly Cloudy
6:15 PM 80.6 °F 84.6 °F 71.6 °F 74% 30.11 in 10.0 mi SSW 3.5 mph - N/A   Mostly Cloudy
6:35 PM 82.4 °F 88.2 °F 73.4 °F 74% 30.11 in 7.0 mi ESE 3.5 mph - N/A Rain Light Rain
6:55 PM 86.0 °F 93.4 °F 73.4 °F 66% 30.11 in 10.0 mi Calm Calm - N/A   Overcast
7:15 PM 86.0 °F 93.4 °F 73.4 °F 66% 30.11 in 10.0 mi ENE 5.8 mph - N/A   Overcast
7:35 PM 86.0 °F 91.8 °F 71.6 °F 62% 30.10 in 10.0 mi East 3.5 mph - N/A   Scattered Clouds
7:55 PM 84.2 °F 89.6 °F 71.6 °F 66% 30.10 in 10.0 mi Calm Calm - N/A   Scattered Clouds
8:15 PM 82.4 °F 87.2 °F 71.6 °F 70% 30.10 in 10.0 mi Calm Calm - N/A   Clear
8:35 PM 80.6 °F 86.2 °F 75.2 °F 84% 30.11 in 10.0 mi Calm Calm - N/A   Clear
8:55 PM 80.6 °F 85.4 °F 73.4 °F 79% 30.11 in 10.0 mi WSW 8.1 mph - N/A   Scattered Clouds
9:15 PM 80.6 °F 83.9 °F 69.8 °F 70% 30.10 in 10.0 mi Calm Calm - N/A   Scattered Clouds
9:35 PM 80.6 °F 84.6 °F 71.6 °F 74% 30.10 in 10.0 mi Calm Calm - N/A Thunderstorm Clear
9:55 PM 78.8 °F - 71.6 °F 78% 30.10 in 10.0 mi Calm Calm - N/A   Clear
10:15 PM 78.8 °F - 71.6 °F 78% 30.12 in 10.0 mi ENE 4.6 mph - N/A   Clear
10:35 PM 78.8 °F - 71.6 °F 78% 30.12 in 10.0 mi East 4.6 mph - N/A   Clear
11:35 PM 77.0 °F - 71.6 °F 83% 30.14 in 10.0 mi East 4.6 mph - N/A   Scattered Clouds
11:55 PM 77.0 °F - 69.8 °F 78% 30.14 in 10.0 mi ESE 3.5 mph - N/A   Clear